AFL273 VTBS-UUEE

Flight info

Callsign AFL273
Flight time N/A
Altitude 34000
Route NUNLI1G NUNLI L507 CEA R460 GGC L509 SULOM/N0489F360 L509 TAPIS M875 AMDAR/K0904F360 M875 MILSO M161 GERLI/K0900F380 M161 DENUD T784 LARNO T291 URIDU L158 DIMGI DIMGI3W
Aircraft B77W/H-SDE1E2E3FGHIJ2J3J4J5M1RWXY/LB1D1

Departure

Time 2026-05-04 08:33
Airport Suvarnabhumi Airport (VTBS)

Arrival

Time N/A
Airport Sheremetyevo International Airport (UUEE)
Time Latitude Longitude Altitude Speed Heading
2026-05-04 07:40 13.69107 100.74921 18 ft 0 kts 14°
2026-05-04 07:49 13.71731 100.75613 30 ft 0 kts 14°
2026-05-04 07:50 13.69101 100.74920 30 ft 12 kts 14°
2026-05-04 07:51 13.69080 100.74980 18 ft 0 kts 14°
2026-05-04 08:17 13.69070 100.74977 -3 ft 4 kts 14°
2026-05-04 08:17 13.69043 100.74970 -4 ft 4 kts 14°
2026-05-04 08:17 13.69023 100.74965 21 ft 4 kts 359°
2026-05-04 08:17 13.69009 100.74974 21 ft 3 kts 285°
2026-05-04 08:19 13.68999 100.75016 20 ft 0 kts 284°
2026-05-04 08:20 13.69000 100.75012 20 ft 4 kts 284°
2026-05-04 08:20 13.69012 100.74961 22 ft 5 kts 283°
2026-05-04 08:21 13.69014 100.74952 22 ft 0 kts 283°
2026-05-04 08:24 13.69020 100.74927 18 ft 8 kts 283°
2026-05-04 08:24 13.68984 100.74855 18 ft 16 kts 209°
2026-05-04 08:24 13.68867 100.74819 18 ft 19 kts 195°
2026-05-04 08:24 13.68740 100.74786 18 ft 18 kts 198°
2026-05-04 08:25 13.68702 100.74677 18 ft 18 kts 282°
2026-05-04 08:25 13.68732 100.74550 18 ft 18 kts 284°
2026-05-04 08:25 13.68763 100.74424 18 ft 18 kts 284°
2026-05-04 08:25 13.68794 100.74300 18 ft 18 kts 284°
2026-05-04 08:26 13.68826 100.74175 18 ft 18 kts 291°
2026-05-04 08:27 13.69670 100.74324 17 ft 18 kts 14°
2026-05-04 08:28 13.69792 100.74356 17 ft 18 kts 15°
2026-05-04 08:28 13.69915 100.74390 18 ft 18 kts 15°
2026-05-04 08:28 13.70037 100.74423 18 ft 18 kts 15°
2026-05-04 08:28 13.70159 100.74455 18 ft 18 kts 14°
2026-05-04 08:29 13.70275 100.74481 18 ft 15 kts
2026-05-04 08:29 13.70329 100.74438 18 ft 6 kts 290°
2026-05-04 08:29 13.70339 100.74393 19 ft 7 kts 272°
2026-05-04 08:31 13.67660 100.73614 101 ft 189 kts 194°
2026-05-04 08:33 13.57608 100.70959 2733 ft 260 kts 194°
2026-05-04 08:33 13.55839 100.70479 3251 ft 266 kts 198°
2026-05-04 08:35 13.56210 100.58184 7188 ft 292 kts 326°
2026-05-04 08:35 13.58057 100.57336 7747 ft 294 kts 350°
2026-05-04 08:35 13.60093 100.57229 8212 ft 294 kts
2026-05-04 08:35 13.62156 100.57303 8735 ft 298 kts
2026-05-04 08:37 13.74834 100.57676 12289 ft 311 kts
2026-05-04 08:37 13.76983 100.57703 12874 ft 312 kts 354°
2026-05-04 08:37 13.79064 100.57087 13348 ft 315 kts 328°
2026-05-04 08:38 13.80923 100.55874 13798 ft 321 kts 327°
2026-05-04 08:38 13.82881 100.54608 13943 ft 342 kts 327°
2026-05-04 08:38 13.84965 100.53287 14089 ft 362 kts 328°
2026-05-04 08:40 14.02560 100.44717 17026 ft 419 kts 343°
2026-05-04 08:40 14.05365 100.43885 17592 ft 422 kts 342°
2026-05-04 08:40 14.08202 100.43015 18094 ft 426 kts 342°
2026-05-04 08:41 14.11062 100.42120 18565 ft 430 kts 342°
2026-05-04 08:41 14.13923 100.41215 19029 ft 432 kts 341°
2026-05-04 08:41 14.16813 100.40297 19515 ft 435 kts 341°
2026-05-04 08:41 14.19719 100.39374 19953 ft 439 kts 341°
2026-05-04 08:42 14.22646 100.38444 20400 ft 442 kts 341°
2026-05-04 08:42 14.25598 100.37505 20852 ft 445 kts 341°
2026-05-04 08:42 14.28560 100.36562 21306 ft 448 kts 341°
2026-05-04 08:42 14.31552 100.35611 21737 ft 451 kts 341°
2026-05-04 08:43 14.34567 100.34654 22169 ft 454 kts 341°
2026-05-04 08:43 14.37603 100.33690 22559 ft 458 kts 341°
2026-05-04 08:43 14.39626 100.33047 22809 ft 461 kts 341°
2026-05-04 08:43 14.42686 100.32035 23192 ft 460 kts 336°
2026-05-04 08:44 14.46208 100.29642 23522 ft 462 kts 312°
2026-05-04 08:44 14.48135 100.27002 23868 ft 461 kts 297°
2026-05-04 08:46 14.56737 100.06593 26042 ft 472 kts 292°
2026-05-04 08:46 14.58063 100.03487 26361 ft 474 kts 292°
2026-05-04 08:46 14.59400 100.00361 26668 ft 476 kts 292°
2026-05-04 08:46 14.60746 99.97219 26976 ft 478 kts 292°
2026-05-04 08:47 14.62093 99.94071 27271 ft 480 kts 292°
2026-05-04 08:47 14.63429 99.90947 27578 ft 482 kts 292°
2026-05-04 08:47 14.64787 99.87769 27861 ft 484 kts 292°
2026-05-04 08:47 14.66145 99.84586 28135 ft 486 kts 292°
2026-05-04 08:48 14.67513 99.81378 28410 ft 487 kts 292°
2026-05-04 08:48 14.68882 99.78169 28678 ft 489 kts 292°
2026-05-04 08:48 14.70253 99.74952 28924 ft 490 kts 292°
2026-05-04 08:48 14.71635 99.71707 29137 ft 492 kts 292°
2026-05-04 08:49 14.73014 99.68468 29377 ft 494 kts 292°
2026-05-04 08:50 14.81268 99.49063 31042 ft 489 kts 292°
2026-05-04 08:50 14.82635 99.45847 31331 ft 488 kts 292°
2026-05-04 08:51 14.83997 99.42640 31588 ft 487 kts 292°
2026-05-04 08:51 14.85363 99.39431 31848 ft 487 kts 293°
2026-05-04 08:51 14.87042 99.36395 32102 ft 488 kts 304°
2026-05-04 08:51 14.89162 99.33650 32398 ft 487 kts 308°
2026-05-04 08:52 14.91367 99.30973 32790 ft 485 kts 306°
2026-05-04 08:52 14.93542 99.28351 33560 ft 483 kts 308°
2026-05-04 08:52 14.95698 99.25709 33854 ft 474 kts 308°
2026-05-04 08:52 14.97767 99.23149 33762 ft 466 kts 307°
2026-05-04 08:54 15.14568 99.01844 33883 ft 487 kts 307°
2026-05-04 08:55 15.18846 98.96399 33892 ft 488 kts 307°
2026-05-04 08:55 15.23135 98.90936 33886 ft 488 kts 307°
2026-05-04 09:01 15.71644 98.38079 33849 ft 486 kts 316°
2026-05-04 09:01 15.76775 98.33488 33832 ft 487 kts 316°
2026-05-04 09:02 15.81906 98.28896 33832 ft 487 kts 316°
2026-05-04 09:02 15.87039 98.24300 33830 ft 487 kts 317°
2026-05-04 09:03 15.92149 98.19723 33828 ft 488 kts 317°
2026-05-04 09:03 15.97287 98.15117 33826 ft 488 kts 317°
2026-05-04 09:04 16.02433 98.10500 33828 ft 488 kts 316°
2026-05-04 09:04 16.07584 98.05876 33820 ft 489 kts 316°
2026-05-04 09:05 16.12730 98.01253 33824 ft 489 kts 316°
2026-05-04 09:05 16.17874 97.96629 33833 ft 489 kts 317°
2026-05-04 09:06 16.22928 97.92083 33816 ft 490 kts 317°
2026-05-04 09:07 16.40365 97.75016 33806 ft 493 kts 306°
2026-05-04 09:08 16.42448 97.72188 33819 ft 493 kts 306°
2026-05-04 09:08 16.46616 97.66528 33823 ft 492 kts 306°
2026-05-04 09:09 16.50813 97.60887 33819 ft 492 kts 306°
2026-05-04 09:09 16.55016 97.55271 33828 ft 491 kts 306°
2026-05-04 09:10 16.59222 97.49658 33831 ft 489 kts 307°
2026-05-04 09:10 16.63398 97.44078 33818 ft 486 kts 307°
2026-05-04 09:11 16.67549 97.38523 33812 ft 483 kts 307°
2026-05-04 09:11 16.71646 97.33036 33816 ft 482 kts 307°
2026-05-04 09:12 16.75761 97.27521 33818 ft 481 kts 307°
2026-05-04 09:14 16.92253 97.05373 33823 ft 486 kts 307°
2026-05-04 09:14 16.96401 96.99792 33819 ft 486 kts 306°
2026-05-04 09:15 17.00540 96.94219 33813 ft 485 kts 306°
2026-05-04 09:15 17.04673 96.88649 33817 ft 484 kts 306°
2026-05-04 09:17 17.23118 96.63740 33804 ft 481 kts 306°
2026-05-04 09:18 17.27219 96.58194 33797 ft 482 kts 306°
2026-05-04 09:18 17.31295 96.52675 33813 ft 483 kts 306°
2026-05-04 09:19 17.35369 96.47084 33810 ft 483 kts 306°
2026-05-04 09:19 17.39410 96.41460 33795 ft 484 kts 306°
2026-05-04 09:20 17.43471 96.35816 33811 ft 484 kts 306°
2026-05-04 09:20 17.47560 96.30142 33803 ft 485 kts 306°
2026-05-04 09:21 17.51598 96.24540 33791 ft 484 kts 306°
2026-05-04 09:21 17.55652 96.18912 33796 ft 484 kts 306°
2026-05-04 09:22 17.59709 96.13274 33805 ft 484 kts 306°
2026-05-04 09:22 17.63776 96.07612 33771 ft 489 kts 306°
2026-05-04 09:23 17.67855 96.01941 33785 ft 485 kts 306°
2026-05-04 09:23 17.71885 95.96327 33787 ft 479 kts 306°
2026-05-04 09:25 17.87746 95.74177 33801 ft 476 kts 306°
2026-05-04 09:26 17.91736 95.68594 33802 ft 479 kts 305°
2026-05-04 09:26 17.95738 95.62991 33779 ft 480 kts 305°
2026-05-04 09:27 17.99754 95.57363 33780 ft 481 kts 305°
2026-05-04 09:27 18.03767 95.51735 33783 ft 481 kts 305°
2026-05-04 09:28 18.07744 95.46153 33787 ft 479 kts 305°
2026-05-04 09:28 18.11725 95.40558 33786 ft 477 kts 305°
2026-05-04 09:29 18.15697 95.34974 33789 ft 475 kts 305°
2026-05-04 09:29 18.19656 95.29403 33801 ft 475 kts 305°
2026-05-04 09:30 18.23615 95.23829 33794 ft 475 kts 305°
2026-05-04 09:30 18.27571 95.18259 33798 ft 475 kts 305°
2026-05-04 09:31 18.31488 95.12696 33814 ft 476 kts 304°
2026-05-04 09:31 18.35262 95.06953 33809 ft 477 kts 302°
2026-05-04 09:32 18.39004 95.01178 33843 ft 477 kts 303°
2026-05-04 09:34 18.53361 94.79311 33855 ft 472 kts 302°
2026-05-04 09:34 18.57097 94.73615 33863 ft 472 kts 302°
2026-05-04 09:35 18.60890 94.67948 33862 ft 473 kts 303°
2026-05-04 09:35 18.64760 94.62351 33870 ft 473 kts 304°
2026-05-04 09:37 18.80273 94.39829 33848 ft 475 kts 303°
2026-05-04 09:38 18.84147 94.34179 33853 ft 474 kts 303°
2026-05-04 09:38 18.87989 94.28570 33856 ft 474 kts 303°
2026-05-04 09:39 18.91861 94.22910 33843 ft 474 kts 303°
2026-05-04 09:39 18.95722 94.17261 33843 ft 474 kts 303°
2026-05-04 09:40 18.99584 94.11608 33841 ft 474 kts 303°
2026-05-04 09:40 19.03448 94.05946 33842 ft 474 kts 303°
2026-05-04 09:42 19.18841 93.83340 33840 ft 475 kts 303°
2026-05-04 09:43 19.22699 93.77661 33838 ft 475 kts 303°
2026-05-04 09:43 19.26557 93.71976 33843 ft 475 kts 303°
2026-05-04 09:44 19.30397 93.66314 33843 ft 476 kts 303°
2026-05-04 09:46 19.45841 93.43485 33847 ft 477 kts 303°
2026-05-04 09:46 19.49707 93.37757 33848 ft 478 kts 303°
2026-05-04 09:47 19.53568 93.32031 33847 ft 478 kts 303°
2026-05-04 09:49 19.69012 93.09075 33849 ft 478 kts 303°
2026-05-04 09:51 19.82521 92.88921 33858 ft 478 kts 303°
2026-05-04 09:51 19.86353 92.83192 33854 ft 479 kts 303°
2026-05-04 09:52 19.90217 92.77409 33856 ft 479 kts 303°
2026-05-04 09:52 19.94071 92.71637 33858 ft 479 kts 303°
2026-05-04 09:53 19.97931 92.65850 33856 ft 479 kts 303°
2026-05-04 09:53 20.01792 92.60055 33858 ft 479 kts 303°
2026-05-04 09:54 20.05624 92.54298 33856 ft 480 kts 303°
2026-05-04 09:54 20.09480 92.48499 33857 ft 480 kts 303°
2026-05-04 09:55 20.13334 92.42698 33865 ft 479 kts 303°
2026-05-04 09:55 20.17183 92.36900 33857 ft 479 kts 303°
2026-05-04 09:56 20.21025 92.31106 33856 ft 479 kts 303°
2026-05-04 09:56 20.24863 92.25314 33860 ft 478 kts 303°
2026-05-04 09:57 20.28673 92.19558 33855 ft 478 kts 303°
2026-05-04 09:57 20.32497 92.13775 33857 ft 477 kts 303°
2026-05-04 09:58 20.36319 92.07992 33858 ft 476 kts 303°
2026-05-04 09:58 20.40134 92.02217 33857 ft 476 kts 303°
2026-05-04 10:00 20.55188 91.78968 33858 ft 475 kts 302°
2026-05-04 10:04 20.81314 91.38376 33861 ft 473 kts 302°
2026-05-04 10:04 20.85020 91.32594 33862 ft 473 kts 302°
2026-05-04 10:05 20.88742 91.26780 33857 ft 473 kts 301°
2026-05-04 10:05 20.92462 91.20965 33850 ft 473 kts 301°
2026-05-04 10:06 20.96176 91.15154 33858 ft 473 kts 301°
2026-05-04 10:06 20.99885 91.09344 33864 ft 472 kts 301°
2026-05-04 10:08 21.12794 90.89076 33850 ft 470 kts 301°
2026-05-04 10:08 21.16458 90.83310 33861 ft 471 kts 301°
2026-05-04 10:09 21.20148 90.77499 33857 ft 471 kts 301°
2026-05-04 10:09 21.23836 90.71685 33854 ft 471 kts 301°
2026-05-04 10:10 21.27526 90.65865 33859 ft 471 kts 301°
2026-05-04 10:10 21.31209 90.60052 33852 ft 471 kts 301°
2026-05-04 10:11 21.34859 90.54278 33853 ft 471 kts 301°
2026-05-04 10:11 21.38529 90.48462 33851 ft 471 kts 301°
2026-05-04 10:12 21.42202 90.42641 33853 ft 470 kts 301°
2026-05-04 10:12 21.45870 90.36828 33854 ft 470 kts 301°
2026-05-04 10:13 21.49542 90.31009 33853 ft 470 kts 301°
2026-05-04 10:13 21.53201 90.25201 33861 ft 469 kts 301°
2026-05-04 10:14 21.56861 90.19385 33854 ft 469 kts 301°
2026-05-04 10:16 21.71471 89.96109 33843 ft 469 kts 301°
2026-05-04 10:16 21.75114 89.90292 33834 ft 468 kts 300°
2026-05-04 10:17 21.78745 89.84484 33834 ft 468 kts 300°
2026-05-04 10:19 21.93231 89.61258 33835 ft 468 kts 300°
2026-05-04 10:19 21.96854 89.55435 33832 ft 468 kts 300°
2026-05-04 10:20 22.00476 89.49606 33832 ft 468 kts 300°
2026-05-04 10:20 22.04088 89.43788 33833 ft 468 kts 300°
2026-05-04 10:21 22.07711 89.37945 33833 ft 469 kts 300°
2026-05-04 10:21 22.11339 89.32089 33828 ft 469 kts 300°
2026-05-04 10:22 22.16161 89.24297 33831 ft 469 kts 300°
2026-05-04 10:23 22.19774 89.18450 33819 ft 468 kts 300°
2026-05-04 10:25 22.34335 88.95177 33820 ft 468 kts 302°
2026-05-04 10:25 22.38166 88.89471 33810 ft 469 kts 302°
2026-05-04 10:26 22.41979 88.83757 33812 ft 469 kts 302°
2026-05-04 10:26 22.45776 88.78027 33818 ft 469 kts 302°
2026-05-04 10:27 22.49583 88.72266 33811 ft 471 kts 302°
2026-05-04 10:27 22.53403 88.66481 33809 ft 473 kts 302°
2026-05-04 10:28 22.57226 88.60688 33804 ft 474 kts 302°
2026-05-04 10:28 22.61039 88.54906 33803 ft 475 kts 302°
2026-05-04 10:29 22.64874 88.49087 33803 ft 475 kts 301°
2026-05-04 10:29 22.68647 88.43221 33804 ft 473 kts 298°
2026-05-04 10:30 22.72121 88.37177 33800 ft 472 kts 297°
2026-05-04 10:30 22.75550 88.31101 33802 ft 472 kts 298°
2026-05-04 10:31 22.78989 88.25046 33810 ft 471 kts 298°
2026-05-04 10:32 22.90982 88.04021 33794 ft 467 kts 297°
2026-05-04 10:33 22.94395 87.98021 33795 ft 467 kts 297°
2026-05-04 10:33 22.97808 87.92014 33792 ft 467 kts 297°
2026-05-04 10:34 23.01217 87.86007 33793 ft 468 kts 297°
2026-05-04 10:34 23.04634 87.79980 33792 ft 468 kts 297°
2026-05-04 10:35 23.08048 87.73952 33792 ft 469 kts 297°
2026-05-04 10:35 23.11464 87.67915 33803 ft 468 kts 297°
2026-05-04 10:36 23.14873 87.61881 33794 ft 467 kts 297°
2026-05-04 10:36 23.18243 87.55909 33789 ft 465 kts 297°
2026-05-04 10:37 23.21620 87.49917 33801 ft 464 kts 296°
2026-05-04 10:37 23.25005 87.43902 33787 ft 465 kts 297°
2026-05-04 10:39 23.36771 87.22952 33790 ft 464 kts 296°
2026-05-04 10:40 23.40134 87.16949 33797 ft 465 kts 296°
2026-05-04 10:40 23.43501 87.10937 33803 ft 466 kts 296°
2026-05-04 10:41 23.46872 87.04909 33803 ft 466 kts 296°
2026-05-04 10:41 23.50244 86.98871 33803 ft 466 kts 296°
2026-05-04 10:42 23.53603 86.92868 33811 ft 467 kts 296°
2026-05-04 10:42 23.56985 86.86829 33809 ft 467 kts 296°
2026-05-04 10:43 23.60369 86.80780 33811 ft 467 kts 296°
2026-05-04 10:45 23.73885 86.56550 33836 ft 466 kts 296°
2026-05-04 10:45 23.77243 86.50513 33822 ft 465 kts 296°
2026-05-04 10:46 23.80599 86.44471 33825 ft 464 kts 296°
2026-05-04 10:46 23.84178 86.38592 33832 ft 465 kts 299°
2026-05-04 10:47 23.87865 86.32786 33832 ft 465 kts 299°
2026-05-04 10:47 23.91533 86.27004 33832 ft 466 kts 299°
2026-05-04 10:49 24.06321 86.03528 33837 ft 471 kts 299°
2026-05-04 10:50 24.10038 85.97609 33815 ft 471 kts 299°
2026-05-04 10:52 24.24779 85.74058 33796 ft 468 kts 298°
2026-05-04 10:52 24.28453 85.68171 33795 ft 468 kts 298°
2026-05-04 10:54 24.43137 85.44570 33769 ft 470 kts 298°
2026-05-04 10:56 24.57915 85.20706 33721 ft 473 kts 298°
2026-05-04 10:57 24.61610 85.14724 33774 ft 473 kts 298°
2026-05-04 10:57 24.65280 85.08775 33804 ft 473 kts 298°
2026-05-04 10:58 24.68978 85.02774 33827 ft 474 kts 298°
2026-05-04 10:58 24.72678 84.96765 33833 ft 475 kts 298°
2026-05-04 10:59 24.76415 84.90746 33830 ft 477 kts 299°
2026-05-04 10:59 24.80241 84.84775 33827 ft 478 kts 299°
2026-05-04 11:00 24.84099 84.78778 33792 ft 479 kts 299°
2026-05-04 11:02 24.99417 84.54768 33708 ft 479 kts 298°
2026-05-04 11:05 25.27979 84.09639 33722 ft 479 kts 298°
2026-05-04 11:06 25.31771 84.03617 33732 ft 479 kts 298°
2026-05-04 11:06 25.35603 83.97523 33731 ft 479 kts 298°
2026-05-04 11:10 25.61515 83.56106 33757 ft 478 kts 297°
2026-05-04 11:12 25.76511 83.31984 33758 ft 473 kts 297°
2026-05-04 11:12 25.80252 83.25973 33771 ft 474 kts 298°
2026-05-04 11:13 25.84087 83.20013 33764 ft 475 kts 298°
2026-05-04 11:13 25.87953 83.14055 33774 ft 476 kts 299°
2026-05-04 11:14 25.91820 83.08071 33766 ft 478 kts 299°
2026-05-04 11:16 26.07305 82.83952 33762 ft 480 kts 298°
2026-05-04 11:16 26.11180 82.77897 33775 ft 482 kts 298°
2026-05-04 11:17 26.15080 82.71791 33771 ft 484 kts 298°
2026-05-04 11:19 26.30673 82.47311 33762 ft 485 kts 298°
2026-05-04 11:19 26.34569 82.41174 33760 ft 484 kts 297°
2026-05-04 11:20 26.38431 82.35086 33768 ft 482 kts 297°
2026-05-04 11:20 26.42282 82.29004 33763 ft 479 kts 297°
2026-05-04 11:22 26.57469 82.04921 33769 ft 476 kts 297°
2026-05-04 11:23 26.61275 81.98873 33774 ft 475 kts 297°
2026-05-04 11:25 26.74502 81.77787 33777 ft 472 kts 297°
2026-05-04 11:25 26.78253 81.71786 33778 ft 473 kts 297°
2026-05-04 11:27 26.95270 81.44520 33777 ft 475 kts 298°
2026-05-04 11:28 26.99183 81.38543 33782 ft 476 kts 299°
2026-05-04 11:28 27.03138 81.32581 33787 ft 476 kts 299°
2026-05-04 11:29 27.07075 81.26616 33793 ft 475 kts 299°
2026-05-04 11:29 27.10974 81.20678 33789 ft 474 kts 299°
2026-05-04 11:33 27.38167 80.78972 33795 ft 472 kts 299°
2026-05-04 11:33 27.42036 80.73006 33802 ft 472 kts 299°
2026-05-04 11:34 27.45897 80.67045 33801 ft 471 kts 299°
2026-05-04 11:34 27.49763 80.61067 33801 ft 472 kts 299°
2026-05-04 11:35 27.53629 80.55081 33799 ft 472 kts 299°
2026-05-04 11:35 27.57494 80.49091 33802 ft 472 kts 300°
2026-05-04 11:36 27.61350 80.43105 33804 ft 471 kts 300°
2026-05-04 11:36 27.65200 80.37120 33809 ft 471 kts 300°
2026-05-04 11:37 27.69019 80.31176 33812 ft 471 kts 300°
2026-05-04 11:37 27.72862 80.25184 33809 ft 470 kts 299°
2026-05-04 11:38 27.76702 80.19189 33824 ft 472 kts 300°
2026-05-04 11:38 27.80552 80.13171 33819 ft 472 kts 300°
2026-05-04 11:39 27.84371 80.07194 33810 ft 472 kts 300°
2026-05-04 11:41 27.97790 79.86127 33816 ft 470 kts 300°
2026-05-04 11:41 28.01609 79.80111 33816 ft 470 kts 300°
2026-05-04 11:42 28.05415 79.74109 33822 ft 468 kts 300°
2026-05-04 11:42 28.09212 79.68112 33813 ft 467 kts 300°
2026-05-04 11:43 28.12964 79.62178 33814 ft 466 kts 300°
2026-05-04 11:43 28.16736 79.56202 33822 ft 465 kts 300°
2026-05-04 11:44 28.20500 79.50232 33823 ft 465 kts 300°
2026-05-04 11:44 28.24265 79.44251 33822 ft 465 kts 300°
2026-05-04 11:45 28.28023 79.38274 33829 ft 466 kts 299°
2026-05-04 11:45 28.31763 79.32316 33828 ft 466 kts 299°
2026-05-04 11:46 28.35528 79.26312 33824 ft 466 kts 299°
2026-05-04 11:46 28.39295 79.20296 33824 ft 466 kts 299°
2026-05-04 11:47 28.43048 79.14292 33824 ft 467 kts 299°
2026-05-04 11:47 28.46807 79.08273 33825 ft 467 kts 299°
2026-05-04 11:48 28.50560 79.02254 33835 ft 466 kts 299°
2026-05-04 11:48 28.54305 78.96239 33839 ft 465 kts 299°
2026-05-04 11:49 28.58036 78.90237 33829 ft 465 kts 299°
2026-05-04 11:49 28.61767 78.84228 33831 ft 464 kts 299°
2026-05-04 11:50 28.65463 78.78266 33834 ft 464 kts 299°
2026-05-04 11:50 28.69186 78.72251 33824 ft 464 kts 299°
2026-05-04 11:51 28.72899 78.66244 33844 ft 463 kts 299°
2026-05-04 11:51 28.76599 78.60252 33853 ft 461 kts 299°
2026-05-04 11:52 28.80289 78.54265 33832 ft 461 kts 299°
2026-05-04 11:52 28.83972 78.48281 33829 ft 460 kts 299°
2026-05-04 11:53 28.87648 78.42300 33827 ft 460 kts 299°
2026-05-04 11:53 28.90701 78.37326 33828 ft 460 kts 299°
2026-05-04 11:55 29.05379 78.13330 33837 ft 465 kts 299°
2026-05-04 11:56 29.09091 78.07240 33814 ft 467 kts 300°
2026-05-04 11:56 29.12804 78.01142 33819 ft 466 kts 299°
2026-05-04 11:57 29.16488 77.95082 33841 ft 466 kts 299°
2026-05-04 11:57 29.20187 77.88989 33826 ft 464 kts 299°
2026-05-04 11:58 29.23864 77.82920 33825 ft 462 kts 299°
2026-05-04 11:58 29.27525 77.76868 33845 ft 462 kts 300°
2026-05-04 11:59 29.31160 77.70850 33837 ft 462 kts 300°
2026-05-04 11:59 29.34824 77.64777 33845 ft 463 kts 300°
2026-05-04 12:00 29.38489 77.58694 33844 ft 464 kts 300°
2026-05-04 12:00 29.42156 77.52600 33843 ft 464 kts 300°
2026-05-04 12:01 29.45822 77.46497 33841 ft 464 kts 300°
2026-05-04 12:02 29.58628 77.25102 33843 ft 468 kts 300°
2026-05-04 12:03 29.62296 77.18954 33831 ft 470 kts 300°
2026-05-04 12:03 29.66000 77.12736 33838 ft 473 kts 300°
2026-05-04 12:04 29.69729 77.06470 33836 ft 475 kts 300°
2026-05-04 12:04 29.73460 77.00190 33835 ft 475 kts 300°
2026-05-04 12:05 29.77189 76.93904 33844 ft 476 kts 300°
2026-05-04 12:05 29.80899 76.87638 33832 ft 476 kts 300°
2026-05-04 12:06 29.84628 76.81330 33829 ft 475 kts 299°
2026-05-04 12:06 29.88347 76.75029 33825 ft 475 kts 299°
2026-05-04 12:07 29.92061 76.68729 33818 ft 474 kts 299°
2026-05-04 12:07 29.95764 76.62436 33814 ft 474 kts 299°
2026-05-04 12:08 29.99441 76.56178 33835 ft 474 kts 299°
2026-05-04 12:08 30.03136 76.49878 33816 ft 473 kts 300°
2026-05-04 12:09 30.06815 76.43601 33806 ft 470 kts 300°
2026-05-04 12:09 30.10464 76.37361 33799 ft 467 kts 300°
2026-05-04 12:10 30.14080 76.31169 33795 ft 464 kts 300°
2026-05-04 12:10 30.17684 76.24986 33816 ft 465 kts 300°
2026-05-04 12:11 30.19494 76.21875 33990 ft 467 kts 300°
2026-05-04 12:11 30.21307 76.18760 34292 ft 465 kts 300°
2026-05-04 12:11 30.23109 76.15662 34617 ft 464 kts 300°
2026-05-04 12:11 30.24916 76.12549 34725 ft 466 kts 300°
2026-05-04 12:12 30.26718 76.09446 35121 ft 462 kts 300°
2026-05-04 12:12 30.28486 76.06401 35367 ft 462 kts 300°
2026-05-04 12:12 30.30281 76.03302 35539 ft 464 kts 300°
2026-05-04 12:12 30.32084 76.00189 35687 ft 465 kts 300°
2026-05-04 12:14 30.46410 75.75373 35782 ft 461 kts 300°
2026-05-04 12:15 30.49973 75.69176 35771 ft 461 kts 300°
2026-05-04 12:15 30.53524 75.62993 35779 ft 461 kts 300°
2026-05-04 12:16 30.57075 75.56797 35781 ft 461 kts 300°
2026-05-04 12:16 30.60631 75.50586 35785 ft 461 kts 300°
2026-05-04 12:17 30.64180 75.44377 35779 ft 462 kts 300°
2026-05-04 12:17 30.67710 75.38193 35777 ft 462 kts 300°
2026-05-04 12:18 30.71264 75.31957 35785 ft 463 kts 300°
2026-05-04 12:18 30.74821 75.25713 35778 ft 463 kts 300°
2026-05-04 12:19 30.78376 75.19459 35768 ft 463 kts 301°
2026-05-04 12:19 30.82433 75.13603 35770 ft 467 kts 311°
2026-05-04 12:20 30.87193 75.08405 35774 ft 468 kts 313°
2026-05-04 12:20 30.91972 75.03263 35760 ft 467 kts 314°
2026-05-04 12:21 30.96699 74.98138 35771 ft 467 kts 314°
2026-05-04 12:21 31.01440 74.92967 35767 ft 465 kts 314°
2026-05-04 12:22 31.06163 74.87804 35767 ft 464 kts 313°
2026-05-04 12:22 31.10870 74.82654 35772 ft 464 kts 313°
2026-05-04 12:23 31.15576 74.77498 35765 ft 463 kts 313°
2026-05-04 12:23 31.20280 74.72338 35773 ft 464 kts 314°
2026-05-04 12:24 31.24964 74.67194 35771 ft 466 kts 314°
2026-05-04 12:24 31.29689 74.62001 35768 ft 467 kts 314°
2026-05-04 12:25 31.34435 74.56796 35769 ft 468 kts 315°
2026-05-04 12:25 31.39559 74.52042 35778 ft 470 kts 319°
2026-05-04 12:26 31.44773 74.47397 35780 ft 471 kts 319°
2026-05-04 12:26 31.49999 74.42723 35775 ft 472 kts 319°
2026-05-04 12:27 31.55217 74.38029 35776 ft 472 kts 319°
2026-05-04 12:27 31.60384 74.33366 35779 ft 471 kts 319°
2026-05-04 12:28 31.65575 74.28674 35799 ft 470 kts 319°
2026-05-04 12:28 31.70743 74.23995 35789 ft 469 kts 319°
2026-05-04 12:29 31.75913 74.19309 35791 ft 468 kts 319°
2026-05-04 12:29 31.81068 74.14630 35790 ft 467 kts 319°
2026-05-04 12:30 31.86185 74.09979 35805 ft 467 kts 319°
2026-05-04 12:30 31.91346 74.05280 35807 ft 469 kts 319°
2026-05-04 12:31 31.96507 74.00575 35811 ft 471 kts 319°
2026-05-04 12:31 32.01699 73.95835 35811 ft 471 kts 319°
2026-05-04 12:32 32.09445 73.88752 35812 ft 471 kts 319°
2026-05-04 12:33 32.14622 73.84008 35823 ft 471 kts 319°
2026-05-04 12:33 32.19803 73.79254 35815 ft 471 kts 319°
2026-05-04 12:34 32.24974 73.74502 35807 ft 470 kts 319°
2026-05-04 12:34 32.30142 73.69746 35815 ft 470 kts 319°
2026-05-04 12:35 32.35302 73.64990 35815 ft 470 kts 319°
2026-05-04 12:35 32.40452 73.60237 35818 ft 469 kts 319°
2026-05-04 12:36 32.45590 73.55488 35814 ft 469 kts 319°
2026-05-04 12:36 32.50729 73.50731 35815 ft 468 kts 319°
2026-05-04 12:37 32.55858 73.45977 35821 ft 468 kts 319°
2026-05-04 12:37 32.60950 73.41250 35829 ft 468 kts 319°
2026-05-04 12:38 32.66082 73.36482 35821 ft 469 kts 319°
2026-05-04 12:38 32.71230 73.31693 35826 ft 470 kts 319°
2026-05-04 12:39 32.76122 73.26575 35830 ft 468 kts 310°
2026-05-04 12:39 32.80162 73.20546 35832 ft 465 kts 301°
2026-05-04 12:40 32.83106 73.15198 35833 ft 465 kts 301°
2026-05-04 12:40 32.86630 73.08733 35835 ft 466 kts 301°
2026-05-04 12:41 32.90180 73.02277 35827 ft 466 kts 301°
2026-05-04 12:41 32.93742 72.95831 35837 ft 466 kts 301°
2026-05-04 12:42 32.97299 72.89395 35836 ft 464 kts 302°
2026-05-04 12:42 33.00832 72.82989 35831 ft 461 kts 301°
2026-05-04 12:43 33.04318 72.76656 35828 ft 460 kts 301°
2026-05-04 12:43 33.07820 72.70282 35829 ft 459 kts 301°
2026-05-04 12:44 33.11310 72.63919 35820 ft 458 kts 301°
2026-05-04 12:44 33.14798 72.57549 35815 ft 457 kts 302°
2026-05-04 12:45 33.18268 72.51203 35812 ft 456 kts 302°
2026-05-04 12:45 33.21732 72.44853 35840 ft 455 kts 302°
2026-05-04 12:46 33.25185 72.38516 35818 ft 455 kts 302°
2026-05-04 12:46 33.28630 72.32181 35814 ft 455 kts 302°
2026-05-04 12:47 33.32073 72.25840 35813 ft 455 kts 302°
2026-05-04 12:47 33.35490 72.19537 35807 ft 454 kts 302°
2026-05-04 12:48 33.38926 72.13188 35808 ft 454 kts 302°
2026-05-04 12:48 33.42355 72.06842 35820 ft 454 kts 302°
2026-05-04 12:49 33.45788 72.00482 35810 ft 455 kts 302°
2026-05-04 12:49 33.49219 71.94115 35806 ft 455 kts 302°
2026-05-04 12:50 33.52304 71.87514 35806 ft 454 kts 289°
2026-05-04 12:50 33.53516 71.80097 35812 ft 456 kts 273°
2026-05-04 12:51 33.53133 71.72514 35809 ft 456 kts 267°
2026-05-04 12:51 33.52599 71.64984 35812 ft 456 kts 267°
2026-05-04 12:52 33.52109 71.57379 35811 ft 457 kts 268°
2026-05-04 12:52 33.51649 71.49790 35807 ft 457 kts 269°
2026-05-04 12:53 33.51191 71.42194 35817 ft 457 kts 268°
2026-05-04 12:53 33.50727 71.34584 35823 ft 458 kts 268°
2026-05-04 12:54 33.50258 71.26983 35830 ft 458 kts 268°
2026-05-04 12:54 33.49786 71.19388 35851 ft 457 kts 268°
2026-05-04 12:55 33.49307 71.11779 35852 ft 457 kts 268°
2026-05-04 12:55 33.49133 71.04216 35833 ft 449 kts 283°
2026-05-04 12:55 33.50052 71.00672 35908 ft 446 kts 295°
2026-05-04 12:56 33.51551 70.97421 35867 ft 446 kts 305°
2026-05-04 12:56 33.53615 70.94672 35876 ft 445 kts 316°
2026-05-04 12:56 33.55873 70.92198 35872 ft 447 kts 316°
2026-05-04 12:57 33.60472 70.87146 35869 ft 449 kts 316°
2026-05-04 12:57 33.65033 70.82052 35885 ft 448 kts 316°
2026-05-04 12:58 33.69571 70.76933 35881 ft 446 kts 315°
2026-05-04 12:58 33.74083 70.71817 35888 ft 446 kts 315°
2026-05-04 12:59 33.78611 70.66683 35895 ft 447 kts 315°
2026-05-04 12:59 33.83133 70.61557 35881 ft 447 kts 315°
2026-05-04 13:00 33.87636 70.56442 35895 ft 448 kts 315°
2026-05-04 13:00 33.91987 70.51074 35894 ft 447 kts 308°
2026-05-04 13:01 33.95573 70.44940 35881 ft 449 kts 300°
2026-05-04 13:01 33.98517 70.38295 35858 ft 450 kts 298°
2026-05-04 13:02 34.01409 70.31598 35869 ft 451 kts 298°
2026-05-04 13:02 34.04332 70.24900 35834 ft 451 kts 298°
2026-05-04 13:03 34.07261 70.18224 35846 ft 449 kts 298°
2026-05-04 13:03 34.10180 70.11568 35869 ft 450 kts 298°
2026-05-04 13:04 34.13098 70.04896 35841 ft 446 kts 299°
2026-05-04 13:04 34.15967 69.98335 35842 ft 442 kts 298°
2026-05-04 13:05 34.18813 69.91779 35850 ft 440 kts 298°
2026-05-04 13:05 34.21644 69.85219 35838 ft 440 kts 298°
2026-05-04 13:06 34.24461 69.78680 35851 ft 442 kts 298°
2026-05-04 13:06 34.27322 69.72043 35856 ft 443 kts 298°
2026-05-04 13:07 34.30169 69.65422 35880 ft 444 kts 298°
2026-05-04 13:07 34.33022 69.58770 35855 ft 446 kts 298°
2026-05-04 13:08 34.35854 69.52173 35839 ft 444 kts 298°
2026-05-04 13:08 34.38688 69.45551 35843 ft 442 kts 298°
2026-05-04 13:09 34.41509 69.38944 35858 ft 441 kts 298°
2026-05-04 13:09 34.44320 69.32351 35854 ft 440 kts 298°
2026-05-04 13:10 34.47124 69.25770 35875 ft 440 kts 298°
2026-05-04 13:10 34.50002 69.19239 35831 ft 437 kts 305°
2026-05-04 13:11 34.54119 69.13876 35869 ft 437 kts 319°
2026-05-04 13:11 34.59261 69.09932 35892 ft 440 kts 330°
2026-05-04 13:12 34.64709 69.06485 35886 ft 443 kts 330°
2026-05-04 13:12 34.70150 69.03030 35898 ft 444 kts 330°
2026-05-04 13:13 34.75623 68.99508 35896 ft 445 kts 330°
2026-05-04 13:13 34.81056 68.95987 35922 ft 444 kts 329°
2026-05-04 13:14 34.86483 68.92466 35941 ft 440 kts 330°
2026-05-04 13:14 34.91878 68.88950 35953 ft 440 kts 330°
2026-05-04 13:15 34.97270 68.85435 35981 ft 439 kts 329°
2026-05-04 13:15 35.02665 68.81913 36000 ft 439 kts 329°
2026-05-04 13:16 35.08045 68.78398 36042 ft 438 kts 329°
2026-05-04 13:16 35.13429 68.74876 36061 ft 440 kts 329°
2026-05-04 13:17 35.18802 68.71354 36069 ft 442 kts 329°
2026-05-04 13:17 35.24240 68.67789 36086 ft 443 kts 329°
2026-05-04 13:18 35.29681 68.64212 36115 ft 444 kts 329°
2026-05-04 13:18 35.33295 68.61832 36094 ft 444 kts 329°